Location: Baix
(44.7118°N, 4.7648°E)
Time: 22:53:22
(UTC+00:00)

SR - All Passes

Search period start: 25 November 2020 00:00
Search period end: 05 December 2020 00:00
Orbit: 579 x 876 km, 66.7° (Epoch: 25 November)

Date Brightness Start Highest point End Pass type
(mag) Time Alt. Az. Time Alt. Az. Time Alt. Az.
25 Nov - 01:34:16 10° N 01:36:42 13° NNE 01:39:12 10° ENE night (unlit)
25 Nov - 03:14:43 10° NNW 03:19:52 54° NE 03:25:23 10° SE visible
25 Nov - 04:57:18 10° NW 05:01:41 26° WSW 05:06:19 10° SSW visible
25 Nov - 17:48:39 10° SSE 17:51:41 19° ESE 17:54:51 10° ENE visible
25 Nov - 19:29:05 10° SW 19:33:17 49° NW 19:37:47 10° NNE visible
25 Nov - 21:15:33 10° NW 21:16:35 11° NNW 21:17:38 10° NNW night (unlit)
26 Nov - 02:25:16 10° NNW 02:29:55 31° NE 02:34:51 10° ESE visible
26 Nov - 04:07:02 10° NW 04:12:10 49° WSW 04:17:38 10° S visible
26 Nov - 18:39:12 10° SSW 18:43:30 82° ESE 18:48:07 10° NE visible
26 Nov - 20:23:18 10° WNW 20:26:13 17° NW 20:29:17 10° N visible
27 Nov - 01:36:01 10° N 01:39:47 20° NE 01:43:44 10° E night (unlit)
27 Nov - 03:17:10 10° NNW 03:22:30 90° SW 03:28:13 10° SSE visible
27 Nov - 05:01:05 10° WNW 05:03:57 14° WSW 05:06:54 10° SW visible
27 Nov - 17:49:57 10° S 17:53:55 37° ESE 17:58:08 10° NE visible
27 Nov - 19:32:15 10° WSW 19:36:03 28° NW 19:40:06 10° NNE visible
28 Nov - 00:47:10 10° N 00:49:27 13° NNE 00:51:50 10° ENE night (unlit)
28 Nov - 02:27:32 10° NNW 02:32:42 51° NE 02:38:12 10° SE visible
28 Nov - 04:10:01 10° NW 04:14:34 28° WSW 04:19:20 10° SSW visible
28 Nov - 17:01:38 10° SSE 17:04:33 18° ESE 17:07:33 10° ENE visible
28 Nov - 18:41:50 10° SW 18:46:04 52° NW 18:50:39 10° NNE visible
28 Nov - 20:27:54 10° NW 20:29:20 11° NNW 20:30:48 10° NNW visible
29 Nov - 01:38:06 10° NNW 01:42:43 30° NE 01:47:37 10° ESE night (unlit)
29 Nov - 03:19:49 10° NW 03:25:01 52° WSW 03:30:33 10° S visible
29 Nov - 17:52:00 10° SSW 17:56:18 76° ESE 18:00:56 10° NE visible
29 Nov - 19:35:55 10° W 19:38:59 18° NW 19:42:12 10° N visible
30 Nov - 00:48:52 10° N 00:52:34 19° NE 00:56:26 10° E night (unlit)
30 Nov - 02:29:58 10° NNW 02:35:20 86° ENE 02:41:04 10° SSE night (unlit)
30 Nov - 04:13:40 10° WNW 04:16:50 16° WSW 04:20:04 10° SW night (unlit)
30 Nov - 17:02:50 10° S 17:06:45 35° ESE 17:10:55 10° NE visible
30 Nov - 18:44:56 10° WSW 18:48:49 30° NW 18:52:59 10° NNE visible
01 Dec - 00:00:03 10° N 00:02:13 12° NNE 00:04:26 10° NE night (unlit)
01 Dec - 01:40:22 10° NNW 01:45:31 48° NE 01:51:00 10° SE night (unlit)
01 Dec - 03:22:45 10° NW 03:27:25 30° WSW 03:32:19 10° S night (unlit)
01 Dec - 16:14:38 10° SE 16:17:23 17° ESE 16:20:15 10° ENE daylight
01 Dec - 17:54:34 10° SW 17:58:52 56° NW 18:03:29 10° NNE visible
01 Dec - 19:40:21 10° NW 19:42:05 12° NNW 19:43:52 10° N visible
02 Dec - 00:50:56 10° NNW 00:55:31 29° NE 01:00:22 10° ESE night (unlit)
02 Dec - 02:32:36 10° NW 02:37:52 55° WSW 02:43:28 10° SSE night (unlit)
02 Dec - 17:04:49 10° SSW 17:09:07 71° ESE 17:13:45 10° NE visible
02 Dec - 18:48:33 10° W 18:51:44 19° NW 18:55:06 10° N visible
03 Dec - 00:01:43 10° N 00:05:21 18° NE 00:09:07 10° E night (unlit)
03 Dec - 01:42:47 10° NNW 01:48:10 82° ENE 01:53:54 10° SE night (unlit)
03 Dec - 03:26:18 10° WNW 03:29:41 17° WSW 03:33:12 10° SW night (unlit)
03 Dec - 16:15:43 10° S 16:19:34 33° ESE 16:23:41 10° NE daylight
03 Dec - 17:57:38 10° WSW 18:01:36 31° NW 18:05:50 10° NNE visible
03 Dec - 23:12:58 10° N 23:14:58 12° NNE 23:17:02 10° NE night (unlit)
04 Dec - 00:53:10 10° NNW 00:58:19 46° NE 01:03:47 10° SE night (unlit)
04 Dec - 02:35:30 10° NW 02:40:16 32° WSW 02:45:17 10° S night (unlit)
04 Dec - 15:27:39 10° SE 15:30:14 16° ESE 15:32:55 10° ENE daylight
04 Dec - 17:07:20 10° SW 17:11:39 60° NW 17:16:19 10° NNE visible
04 Dec - 18:52:49 10° WNW 18:54:49 12° NNW 18:56:52 10° N visible
